Vorticity
nan nan nan nan nan nan nan nan nan nan nan nan nan nan nan nan nan nan nan nan nan nan nan nan nan nan nan nan nan nan nan nan nan nan nan nan nan nan nan nan nan nan nan nan nan nan nan nan nan
nan 2 3 6 7 8 5 6 12 12 8 2 5 5 3 6 11 8 9 9 8 7 9 7 6 5 5 6 6 6 6 6 6 5 6 4 6 6 6 6 6 5 6 7 6 5 6 5 nan
nan 2 6 9 6 5 7 11 7 2 4 6 4 4 7 8 7 7 10 9 6 8 7 7 6 5 6 6 5 6 6 5 5 6 6 6 5 6 5 5 5 7 5 5 5 5 5 5 nan
nan 6 6 5 9 7 12 10 3 3 5 9 6 5 5 7 14 15 8 6 6 5 5 6 7 6 5 5 6 7 6 6 6 6 5 5 5 6 6 7 6 5 5 5 4 4 4 4 nan
nan 5 6 5 5 8 10 7 5 8 9 10 8 5 5 13 15 7 4 8 7 5 6 5 7 7 6 6 6 7 7 6 5 5 6 5 6 5 6 6 6 4 4 4 5 4 4 4 nan
nan 7 5 7 7 5 5 8 12 10 9 7 6 6 10 13 2 3 6 8 6 4 7 6 4 7 7 7 6 6 6 7 7 7 7 5 5 5 5 5 4 4 4 5 5 4 4 5 nan
nan 9 8 7 5 6 7 8 8 5 5 6 4 3 8 7 5 6 6 6 5 5 8 4 7 6 4 4 7 6 6 6 7 7 7 7 5 4 5 4 4 3 4 4 4 4 4 4 nan
nan 8 7 7 6 10 8 3 5 4 8 8 6 10 10 7 5 5 5 5 3 5 6 8 8 6 8 4 4 5 7 6 6 5 4 5 5 6 5 4 3 4 4 5 5 4 4 4 nan
nan 7 7 9 12 11 7 1 4 8 4 4 14 17 15 9 3 3 3 4 5 7 3 7 7 6 6 5 4 5 4 3 3 3 4 4 4 5 3 5 5 5 5 5 6 6 7 8 nan
nan 8 7 11 17 12 5 8 7 7 5 6 13 13 10 6 4 3 2 4 6 4 4 6 5 5 6 3 5 4 3 3 4 5 5 7 6 5 5 5 6 7 6 6 6 7 10 10 nan
nan 11 8 11 16 8 5 7 10 7 6 14 10 5 5 5 5 4 5 6 5 1 5 5 6 5 5 5 5 6 6 6 5 5 7 8 6 6 7 7 8 8 9 7 8 8 6 7 nan
nan 10 13 11 7 7 9 9 7 8 18 16 9 5 6 6 6 6 5 4 4 5 6 5 2 3 4 6 7 7 6 6 6 5 7 7 7 7 7 6 7 7 7 8 9 8 7 7 nan
nan 12 13 10 7 9 8 6 6 12 13 9 7 6 5 5 6 7 6 6 4 5 4 5 2 3 4 5 6 5 6 6 6 6 6 7 6 7 7 7 7 7 6 8 6 6 7 8 nan
nan 13 7 5 5 6 4 6 8 8 7 7 5 5 6 6 6 6 7 6 5 5 5 4 3 3 4 5 5 5 4 5 6 6 5 6 7 7 6 6 7 8 7 7 7 6 6 6 nan
nan 1 2 5 4 6 -2 5 17 14 5 5 5 5 6 7 6 5 7 7 6 5 6 4 6 4 4 5 5 5 4 4 6 6 6 6 6 6 7 8 6 8 7 8 9 8 6 5 nan
nan 3 6 4 4 2 2 12 11 8 5 4 5 6 7 7 6 7 8 7 7 6 6 5 6 6 4 5 5 6 6 6 5 6 6 7 7 9 9 10 7 7 7 9 8 7 8 7 nan
nan 9 6 8 6 2 9 11 13 6 4 5 7 7 6 8 8 8 7 8 8 7 6 6 6 6 5 5 6 6 6 7 7 7 6 7 9 10 11 10 10 8 8 8 8 7 7 7 nan
nan 6 7 7 10 5 5 7 13 7 4 4 6 7 7 7 10 10 8 8 8 9 8 8 8 7 6 6 6 7 7 8 7 8 7 6 9 10 11 8 9 9 10 8 5 6 8 9 nan
nan 7 8 8 10 8 5 4 12 9 4 5 6 7 7 7 9 11 10 9 8 9 9 8 7 7 7 7 7 8 9 9 9 9 9 9 7 9 8 6 7 7 7 6 8 8 8 9 nan
nan 6 7 11 17 10 9 5 10 13 7 6 5 6 6 7 8 9 9 9 8 7 8 8 8 8 6 6 6 6 7 8 8 8 9 9 9 8 7 7 8 8 9 8 7 6 7 7 nan
nan 6 8 8 9 12 9 13 10 10 10 8 6 6 7 8 7 8 8 7 7 7 9 8 9 8 8 6 4 5 5 6 7 8 9 10 7 8 10 9 9 8 9 9 8 7 6 7 nan
nan 10 8 10 2 8 6 8 19 14 8 6 8 7 8 7 7 8 8 8 6 7 8 9 9 8 8 8 6 6 4 6 7 8 7 8 10 9 9 10 9 7 7 8 8 8 7 6 nan
nan 18 16 12 8 9 9 3 12 15 14 11 8 8 7 8 9 8 7 8 7 8 7 7 8 8 9 8 6 6 5 5 8 7 7 9 10 9 10 11 8 7 7 8 9 9 8 6 nan
nan 2 9 14 10 9 9 8 5 11 14 13 11 10 9 9 9 9 8 8 9 8 7 8 8 7 8 7 8 6 6 5 6 6 7 8 9 13 11 10 10 10 9 8 8 9 9 8 nan
nan 1 0 7 6 8 13 11 4 10 14 18 17 12 9 8 10 10 9 7 8 8 7 7 7 9 9 7 7 9 6 7 6 7 8 8 8 10 11 10 8 8 9 8 8 9 9 8 nan
nan 2 6 12 9 6 11 9 5 8 12 17 16 16 14 11 10 11 9 7 9 9 7 6 6 8 8 8 8 9 9 7 8 8 8 9 10 8 11 10 8 9 8 7 9 8 7 8 nan
nan 11 8 7 11 10 7 6 9 10 9 18 23 15 14 13 11 11 9 8 9 9 9 7 6 8 9 8 8 9 10 7 7 9 8 10 11 11 9 8 8 7 7 7 8 8 8 8 nan
nan 11 6 8 10 7 4 8 13 6 11 15 19 14 11 12 13 11 11 10 9 9 10 9 8 8 9 9 8 8 10 9 8 11 12 11 10 8 6 6 8 9 9 9 10 11 10 9 nan
nan 1 6 8 11 15 5 9 11 4 1 8 14 14 12 12 12 11 10 12 11 10 10 10 9 9 10 11 10 9 9 11 13 14 12 10 6 5 7 8 8 9 11 13 12 9 10 9 nan
nan nan nan nan nan nan nan nan nan nan nan nan nan nan nan nan nan nan nan nan nan nan nan nan nan nan nan nan nan nan nan nan nan nan nan nan nan nan nan nan nan nan nan nan nan nan nan nan nan
CAPE
1247 1133 747 831 144 0 83 108 103 133 214 172 193 143 105 99 119 159 111 165 116 215 425 1209 2080 2329 1884 2543 2656 2263 2450 2053 2118 1703 1937 1683 1533 1594 1402 1470 1560 1099 890 1013 1075 1230 1428 1272 1354
1354 299 323 504 0 0 27 82 164 176 163 210 147 87 122 110 175 166 116 175 185 268 708 1204 1600 2051 2314 2507 2494 2495 2418 1958 1654 1513 1741 1506 1553 1596 1422 799 865 1120 759 666 759 874 864 1007 1253
567 570 1012 10 5 0 0 152 192 266 203 180 116 165 90 147 96 132 124 148 203 253 854 1092 1792 2119 1943 1878 2034 2108 2201 2124 1974 1835 1647 546 568 683 536 816 1440 823 888 1348 1236 1196 1145 1076 1055
703 1113 45 132 82 254 280 347 329 195 182 114 140 272 208 202 205 161 149 169 120 159 516 1132 1931 1858 1744 1980 2241 2264 2170 2326 2157 1653 1021 618 1616 1578 1596 1648 1595 1300 996 1029 1054 1019 896 580 594
537 107 80 90 222 338 349 302 256 209 207 170 80 103 210 185 158 197 229 210 80 138 502 1353 1846 1824 1690 1952 1942 2012 2129 2277 1860 1213 773 721 1500 1453 1078 1196 1090 1101 1163 1176 973 880 875 965 1004
216 0 43 41 208 325 361 266 238 230 190 153 201 172 274 159 156 129 175 229 192 152 200 1127 1336 1514 1654 1746 1610 1728 1695 1923 1616 1278 1084 1134 1149 1024 1381 1540 1610 1599 1500 1395 1298 1265 1140 1039 929
370 54 13 99 307 342 174 193 252 209 163 149 13 176 174 54 8 1 112 60 35 101 242 364 470 1615 1792 1873 1996 2439 1526 1332 1619 1694 1677 1400 1171 1356 1865 1767 1652 1604 1513 1324 1321 1310 1470 1450 1198
365 0 27 23 273 461 282 323 291 210 253 219 103 100 64 24 0 15 76 27 15 57 51 147 149 303 1611 1601 2285 2223 2144 1407 1330 1126 1064 1183 1369 1472 1352 1345 1520 1449 1331 1295 1273 1275 1235 1170 1112
194 65 107 131 235 499 437 449 389 290 387 462 260 216 133 2 3 6 40 8 0 3 21 77 293 377 1201 896 1580 1769 1561 1782 1671 1689 1448 1362 1121 944 685 982 992 1115 1092 1240 1566 1749 1962 2135 1922
117 74 106 144 487 616 580 565 430 393 247 373 338 129 57 10 1 0 4 4 5 0 10 84 77 55 247 130 216 1258 1107 1058 1192 1295 1399 1192 1475 1552 1631 1307 1343 1628 1657 1758 1761 1870 1757 1431 1563
101 30 69 617 659 740 570 473 472 345 249 222 480 270 151 51 5 0 0 0 1 24 81 7 157 246 74 0 55 409 1048 1030 1336 1564 1679 1838 1647 1568 1397 1451 1667 1591 1119 1480 1394 1543 1489 1627 1765
2 29 537 818 607 502 271 371 376 338 437 298 454 381 206 150 71 32 0 0 4 12 23 15 79 24 47 0 3 119 538 621 677 884 1506 1795 1539 1566 1885 1973 1888 1928 1664 1728 1941 1828 1757 1781 1686
0 379 736 586 332 190 266 315 522 561 449 280 279 302 216 221 235 174 59 0 0 4 12 18 37 70 87 72 48 68 64 137 406 808 1425 1357 1736 1706 1083 1591 1932 2044 1912 1796 2017 1926 1720 1610 1379
259 609 549 277 120 286 170 441 294 626 587 306 263 215 158 169 257 200 70 3 0 0 0 5 11 50 33 82 51 51 72 147 606 1054 1379 1574 1722 2097 1777 1556 1813 1759 1656 1288 1501 1740 1659 1386 844
326 454 417 262 215 297 298 203 349 647 650 387 242 198 175 162 135 237 125 60 4 0 0 0 10 10 17 56 51 51 37 50 201 501 953 986 1429 2195 2202 2033 2017 1636 1463 1879 1746 1663 1232 618 148
142 219 263 312 275 253 96 101 657 669 658 562 369 238 211 181 240 258 220 112 8 0 0 0 0 0 6 13 29 23 44 51 75 88 712 1158 1897 2283 2435 2253 2033 1877 2177 1902 1486 1316 759 427 438
1 146 114 261 175 262 267 124 478 749 751 727 704 634 517 485 480 488 396 256 179 72 0 0 0 0 0 8 16 26 44 63 68 85 363 1438 2457 2367 2469 2175 2196 2189 2283 1824 590 824 602 869 956
87 92 52 176 148 178 271 124 492 759 794 849 862 769 689 671 553 505 463 411 438 334 156 43 8 13 10 0 10 0 24 36 66 349 916 1966 2063 2094 2061 1937 1908 2020 1770 1950 1706 1700 1411 1192 1128
11 22 44 41 49 105 106 119 362 661 723 768 895 906 839 720 504 568 557 493 413 387 385 295 206 157 28 0 0 0 0 4 140 730 1485 1957 1738 1725 1903 1549 1145 1024 1228 1311 1505 1324 1647 1436 993
0 0 0 0 5 117 74 82 53 617 663 662 735 843 814 777 753 626 580 584 499 474 480 445 358 257 83 16 25 28 230 420 736 1084 1698 1731 1691 1613 1452 1379 1036 598 357 586 946 1407 1526 1439 865
0 0 0 0 0 20 55 58 77 365 623 677 729 729 780 772 728 778 672 672 621 562 555 391 428 327 168 60 35 183 433 763 992 1385 1911 1442 1259 1361 1285 1150 964 449 97 185 618 1141 1617 1867 1537
0 0 0 0 0 0 22 26 123 229 554 554 669 694 677 729 820 771 797 719 660 636 524 538 487 341 236 188 204 521 209 415 793 1415 2011 1781 1401 1126 1016 879 493 205 134 388 715 941 1514 1732 1268
0 0 0 0 0 20 28 40 68 39 267 400 480 615 630 646 695 784 694 664 612 594 571 513 552 430 292 228 395 316 432 580 1065 1551 1737 2282 2005 1570 1191 840 531 432 389 728 1185 1686 1997 1822 1635
0 0 0 0 0 0 28 32 18 62 204 263 261 309 331 438 638 734 731 652 641 554 537 562 630 748 511 363 384 648 1126 1129 1321 1731 1721 2049 2192 2240 1754 1287 1241 1291 1292 1404 1683 2144 2260 2386 2261
0 0 0 0 0 0 0 6 2 8 9 104 192 232 203 185 437 643 720 693 685 616 576 588 902 1097 794 614 474 681 1050 1158 1600 1694 1753 2306 2002 1818 2324 1757 1684 1601 1689 1531 1583 1617 1275 1007 691
0 0 0 0 0 0 0 0 0 0 0 0 15 132 172 130 210 524 602 707 787 685 761 804 1103 1146 1148 994 1001 1412 1375 1316 1475 1786 2104 2417 2372 2199 1717 1678 1276 876 455 508 963 814 835 861 893
0 0 0 0 0 0 0 0 0 0 0 0 0 6 71 141 116 280 509 539 732 763 870 946 1506 1408 1389 1327 1559 1794 1797 1919 1933 2239 2581 2541 2182 1504 1178 775 675 696 752 1031 1014 723 1027 1018 1060
0 0 0 0 0 0 0 0 0 0 7 0 0 1 55 167 113 139 293 449 615 746 900 1038 1151 1681 1511 1476 1608 1744 2012 2269 2421 2527 2504 1986 1631 1381 1162 981 808 707 537 487 896 921 800 1082 1200
0 0 0 0 0 0 0 0 0 8 0 0 0 1 142 245 177 112 153 313 515 536 723 993 1153 1439 1640 1688 1782 1948 2132 2242 2335 2085 1514 930 764 524 396 408 440 548 547 960 974 960 944 970 979
0 0 0 0 0 0 0 0 0 0 0 0 0 26 48 142 191 205 166 245 461 517 584 847 1138 1368 1620 1692 1868 2005 1997 1616 1317 1091 532 289 189 260 353 392 501 689 708 387 189 49 94 134 145